Home > Weather > Graz > Past weeks

Flag for Austria Past Weather in Graz, Styria, Austria — Yesterday and Last 2 Weeks

Now
66 °F

Passing clouds.


Feels Like: 66 °F
Forecast: 62 / 83 °F
Wind: 5 mph from South

Location: Graz-Thalerhof-Flughafen

Current Time: Jul 25, 2016 at 4:36:43 AM

Latest Report: Jul 25, 2016 at 3:50 AM


Visibility: N/A

Pressure: 30.07 "Hg

Humidity: 94%

Dew Point: 64 °F

Location of GrazLocation

Past Weather in Graz — Graph

°F

Graz Temperature Yesterday

Maximum temperature yesterday: 82 °F (at 12:50 PM)
Minimum temperature yesterday: 68 °F (at 3:50 AM)
Average temperature yesterday: 73 °F

High & Low Weather Summary for the Past Weeks

 TemperatureHumidityPressure
High88 °F (Jul 11, 2:50 PM)100% (Jul 13, 9:50 PM)30.18 "Hg (Jul 13, 9:50 PM)
Low50 °F (Jul 15, 5:20 AM)35% (Jul 14, 3:50 PM)29.77 "Hg (Jul 14, 12:50 AM)
Average70 °F71%30.03 "Hg
* Reported Jul 10 3:20 AM — Jul 25 3:20 AM, Graz, Weather by CustomWeather, © 2016

Note: Actual official high and low records may vary slightly from our data, if they occured in-between our weather recording intervals... More about our weather records

Advertising

Graz Weather History for the Previous 24 Hours

Scroll right to see more
 ConditionsComfort  
Time TempWeatherWind HumidityBarometerVisibility
3:20 AM
Mon, Jul 25
68 °FMild.2 mph94%30.07 "HgN/A
2:50 AM70 °FMild.6 mph83%30.07 "HgN/A
2:20 AM70 °FMild.6 mph88%30.07 "HgN/A
1:50 AM70 °FMild.5 mph88%30.04 "HgN/A
1:20 AM68 °FMild.1 mph100%30.07 "HgN/A
12:50 AM68 °FMild.1 mph94%30.07 "HgN/A
12:20 AM68 °FMild.1 mph94%30.07 "HgN/A
11:50 PM
Sun, Jul 24
68 °FMild.2 mph94%30.07 "HgN/A
11:20 PM68 °FPassing clouds.2 mph94%30.07 "HgN/A
10:50 PM70 °FPassing clouds.2 mph88%30.07 "HgN/A
10:20 PM70 °FPassing clouds.3 mph88%30.07 "HgN/A
9:50 PM70 °FPassing clouds.2 mph94%30.07 "HgN/A
9:20 PM70 °FPartly sunny.2 mph94%30.07 "HgN/A
8:50 PM70 °FBroken clouds.1 mph94%30.07 "HgN/A
8:20 PM70 °FBroken clouds.3 mph94%30.07 "HgN/A
7:50 PM72 °FBroken clouds.5 mph88%30.07 "HgN/A
7:20 PM72 °FBroken clouds.5 mph88%30.04 "HgN/A
6:50 PM68 °FBroken clouds.2 mph94%30.04 "HgN/A
6:20 PM68 °FSprinkles. Partly sunny.3 mph88%30.04 "HgN/A
5:50 PM68 °FPartly sunny.5 mph88%30.07 "HgN/A
5:20 PM68 °FThunderstorms. Partly sunny.3 mph88%30.07 "HgN/A
4:50 PM68 °FThunderstorms. Partly sunny.3 mph88%30.07 "HgN/A
4:20 PM70 °FThunderstorms. Broken clouds.9 mph78%30.04 "HgN/A
3:50 PM75 °FStrong thunderstorms. Partly sunny.15 mph74%30.07 "HgN/A
3:20 PM82 °FThunderstorms. Scattered clouds.8 mph66%30.04 "HgN/A
2:50 PM82 °FThunderstorms. Scattered clouds.12 mph66%30.04 "HgN/A
2:20 PM82 °FScattered clouds.9 mph66%30.04 "HgN/A
1:50 PM81 °FThundershowers. Scattered clouds.7 mph66%30.07 "HgN/A
1:20 PM82 °FScattered clouds.8 mph66%30.07 "HgN/A
12:50 PM82 °FScattered clouds.6 mph62%30.07 "HgN/A
12:20 PM81 °FScattered clouds.6 mph66%30.07 "HgN/A
11:50 AM81 °FScattered clouds.6 mph66%30.07 "HgN/A
11:20 AM81 °FScattered clouds.6 mph66%30.07 "HgN/A
10:50 AM77 °FScattered clouds.5 mph74%30.07 "HgN/A
10:20 AM79 °FScattered clouds.2 mph70%30.07 "HgN/A
9:50 AM79 °FBroken clouds.1 mph74%30.07 "HgN/A
9:20 AM75 °FScattered clouds.2 mph78%30.07 "HgN/A
8:50 AM77 °FPartly sunny.2 mph74%30.07 "HgN/A
8:20 AM75 °FPassing clouds.1 mph78%30.04 "HgN/A
7:50 AM73 °FScattered clouds.1 mph83%30.04 "HgN/A
7:20 AM72 °FScattered clouds.2 mph88%30.04 "HgN/A
6:50 AM68 °FPartly sunny.2 mph94%30.04 "HgN/A
6:20 AM68 °FPassing clouds.2 mph94%30.04 "HgN/A
5:50 AM68 °FPassing clouds.1 mph94%30.04 "HgN/A
5:20 AM68 °FPassing clouds.1 mph94%30.04 "HgN/A
4:50 AM68 °FMild.2 mph94%30.04 "HgN/A
4:20 AM68 °FPassing clouds.2 mph88%30.04 "HgN/A
Weather by CustomWeather, © 2016

See weather overviewHow to use our weather pages